Location: Altmatt
(47.1333°N, 8.7000°E)
Time: 08:07:12
(UTC+00:00)

Cosmos 405 - Pass Details

Date: 13 July 2020
Orbit: 450 x 465 km, 81.3° (Epoch: 05 August)

Event Time Altitude Azimuth Distance (km) Brightness Sun altitude
Rises 22:07:23 0° 353° (N) 2,501 8.2 -18.7°
Reaches altitude 10° 22:09:32 10° 359° (N) 1,618 6.8 -18.8°
Maximum altitude 22:12:58 50° 76° (ENE) 594 3.4 -19.0°
Enters shadow 22:13:23 47° 102° (ESE) 620 3.3 -19.0°
